• In Russia
  • List of Countries
  • For 7 days
  • Water Temperature
  • Satellite Maps
  • Weather Map
  • Weather Widgets
  • user-avatar
    Login

    Hourly Weather Nakhchivan

    Today, 23 January, Monday

    Time Temperature Precipitation Wind Pressure Humidity
    00:00 -10°C° 0 mm 1 mps 690 mmHg 92%
    01:00 -10°C° 0 mm 1 mps 690 mmHg 92%
    02:00 -10°C° 0 mm 1 mps 690 mmHg 91%
    03:00 -11°C° 0 mm 1 mps 690 mmHg 90%
    04:00 -11°C° 0 mm 1 mps 690 mmHg 90%
    05:00 -11°C° 0 mm 1 mps 691 mmHg 90%
    06:00 -11°C° 0 mm 1 mps 691 mmHg 90%
    07:00 -9°C° 0 mm 1 mps 691 mmHg 87%
    08:00 -7°C° 0 mm 1 mps 692 mmHg 85%
    09:00 -3°C° 0 mm 1 mps 693 mmHg 77%
    10:00 -1°C° 0 mm 1 mps 693 mmHg 76%
    11:00 0°C° 0 mm 1 mps 693 mmHg 74%
    12:00 +1°C° 0 mm 1 mps 693 mmHg 73%
    13:00 +1°C° 0 mm 1 mps 693 mmHg 76%
    14:00 +1°C° 0 mm 1 mps 692 mmHg 79%
    15:00 0°C° 0 mm 1 mps 692 mmHg 83%
    16:00 -3°C° 0 mm 1 mps 691 mmHg 87%
    17:00 -6°C° 0 mm 0 mps 691 mmHg 91%
    18:00 -9°C° 0 mm 0 mps 690 mmHg 94%
    19:00 -10°C° 0 mm 0 mps 690 mmHg 94%
    20:00 -10°C° 0 mm 0 mps 691 mmHg 93%
    21:00 -10°C° 0 mm 0 mps 691 mmHg 93%
    22:00 -11°C° 0 mm 0 mps 691 mmHg 93%
    23:00 -11°C° 0 mm 0 mps 691 mmHg 92%

    Tomorrow, 24 January, Tuesday

    Time Temperature Precipitation Wind Pressure Humidity
    00:00 -11°C° 0 mm 0 mps 691 mmHg 92%
    01:00 -11°C° 0 mm 0 mps 691 mmHg 91%
    02:00 -11°C° 0 mm 0 mps 691 mmHg 91%
    03:00 -11°C° 0 mm 0 mps 691 mmHg 90%
    04:00 -11°C° 0 mm 0 mps 691 mmHg 90%
    05:00 -11°C° 0 mm 1 mps 691 mmHg 89%
    06:00 -11°C° 0 mm 1 mps 691 mmHg 88%
    07:00 -9°C° 0 mm 1 mps 692 mmHg 85%
    08:00 -7°C° 0 mm 1 mps 693 mmHg 82%
    09:00 -3°C° 0 mm 1 mps 694 mmHg 79%
    10:00 -1°C° 0 mm 1 mps 694 mmHg 76%
    11:00 0°C° 0 mm 1 mps 693 mmHg 73%
    12:00 +2°C° 0 mm 1 mps 693 mmHg 70%
    13:00 +2°C° 0 mm 1 mps 693 mmHg 73%
    14:00 +2°C° 0 mm 1 mps 692 mmHg 77%
    15:00 +2°C° 0 mm 1 mps 692 mmHg 80%
    16:00 -1°C° 0 mm 1 mps 691 mmHg 83%
    17:00 -6°C° 0 mm 1 mps 691 mmHg 87%
    18:00 -9°C° 0 mm 1 mps 690 mmHg 90%
    19:00 -9°C° 0 mm 1 mps 690 mmHg 88%
    20:00 -9°C° 0 mm 1 mps 690 mmHg 85%
    21:00 -9°C° 0 mm 1 mps 690 mmHg 83%
    22:00 -9°C° 0 mm 1 mps 689 mmHg 80%
    23:00 -9°C° 0 mm 1 mps 689 mmHg 78%

    Day after tomorrow, 25 January, Wednesday

    Time Temperature Precipitation Wind Pressure Humidity
    00:00 -9°C° 0 mm 1 mps 689 mmHg 75%
    01:00 -9°C° 0 mm 1 mps 688 mmHg 74%
    02:00 -9°C° 0 mm 1 mps 688 mmHg 72%
    03:00 -9°C° 0 mm 1 mps 688 mmHg 71%
    04:00 -9°C° 0 mm 1 mps 688 mmHg 70%
    05:00 -9°C° 0 mm 2 mps 687 mmHg 69%
    06:00 -9°C° 0 mm 2 mps 687 mmHg 68%
    07:00 -7°C° 0 mm 2 mps 687 mmHg 67%
    08:00 -5°C° 0 mm 2 mps 687 mmHg 66%
    09:00 -4°C° 0 mm 2 mps 687 mmHg 66%
    10:00 -2°C° 0 mm 2 mps 687 mmHg 67%
    11:00 +1°C° 0 mm 2 mps 686 mmHg 69%
    12:00 +2°C° 0 mm 2 mps 686 mmHg 70%
    13:00 +2°C° 0 mm 2 mps 685 mmHg 73%
    14:00 +2°C° 0 mm 2 mps 685 mmHg 77%
    15:00 +2°C° 0 mm 2 mps 684 mmHg 80%
    16:00 +1°C° 0 mm 2 mps 684 mmHg 80%
    17:00 -1°C° 0 mm 2 mps 684 mmHg 80%
    18:00 -2°C° 0 mm 2 mps 684 mmHg 79%
    19:00 -3°C° 0 mm 2 mps 684 mmHg 79%
    20:00 -3°C° 0 mm 2 mps 683 mmHg 79%
    21:00 -3°C° 0 mm 2 mps 683 mmHg 78%
    22:00 -3°C° 0.1 mm 2 mps 683 mmHg 79%
    23:00 -3°C° 0.1 mm 2 mps 683 mmHg 80%

    26 January, Thursday

    Time Temperature Precipitation Wind Pressure Humidity
    00:00 -1°C° 0.1 mm 1 mps 683 mmHg 80%
    01:00 -3°C° 0.1 mm 2 mps 683 mmHg 81%
    02:00 -3°C° 0.1 mm 2 mps 683 mmHg 82%
    03:00 -4°C° 0.1 mm 2 mps 682 mmHg 83%
    04:00 -4°C° 0.1 mm 2 mps 682 mmHg 83%
    05:00 -3°C° 0.1 mm 2 mps 682 mmHg 83%
    06:00 -3°C° 0.1 mm 2 mps 682 mmHg 84%
    07:00 -2°C° 0.1 mm 2 mps 683 mmHg 83%
    08:00 -2°C° 0.1 mm 2 mps 683 mmHg 83%
    09:00 -1°C° 0.1 mm 2 mps 684 mmHg 83%
    10:00 +1°C° 0.1 mm 2 mps 683 mmHg 84%
    11:00 +2°C° 0.1 mm 2 mps 683 mmHg 85%
    12:00 +3°C° 0.1 mm 2 mps 683 mmHg 85%
    13:00 +3°C° 0.1 mm 2 mps 682 mmHg 86%
    14:00 +3°C° 0.1 mm 2 mps 682 mmHg 87%
    15:00 +3°C° 0.1 mm 2 mps 682 mmHg 87%
    16:00 +2°C° 0 mm 2 mps 682 mmHg 88%
    17:00 -1°C° 0 mm 2 mps 682 mmHg 89%
    18:00 -3°C° 0 mm 2 mps 682 mmHg 89%
    19:00 -3°C° 0 mm 2 mps 682 mmHg 88%
    20:00 -3°C° 0 mm 2 mps 682 mmHg 86%
    21:00 -3°C° 0 mm 2 mps 683 mmHg 84%
    22:00 -1°C° 0.1 mm 1 mps 683 mmHg 84%
    23:00 -1°C° 0.1 mm 1 mps 682 mmHg 84%

    27 January, Friday

    Time Temperature Precipitation Wind Pressure Humidity
    00:00 0°C° 0.1 mm 1 mps 682 mmHg 84%
    01:00 -1°C° 0.1 mm 1 mps 682 mmHg 85%
    02:00 -1°C° 0.1 mm 1 mps 682 mmHg 86%
    03:00 -1°C° 0.1 mm 1 mps 682 mmHg 88%
    04:00 -2°C° 0.1 mm 1 mps 682 mmHg 89%
    05:00 -2°C° 0.1 mm 1 mps 682 mmHg 90%
    06:00 -2°C° 0.1 mm 1 mps 681 mmHg 91%
    07:00 -1°C° 0.1 mm 1 mps 682 mmHg 89%
    08:00 0°C° 0.1 mm 1 mps 682 mmHg 87%
    09:00 +1°C° 0.1 mm 1 mps 683 mmHg 85%
    10:00 +2°C° 0.1 mm 1 mps 683 mmHg 85%
    11:00 +3°C° 0.1 mm 1 mps 682 mmHg 85%
    12:00 +4°C° 0.1 mm 1 mps 682 mmHg 85%
    13:00 +4°C° 0.1 mm 1 mps 681 mmHg 86%
    14:00 +4°C° 0.1 mm 1 mps 681 mmHg 86%
    15:00 +4°C° 0.1 mm 1 mps 680 mmHg 87%
    16:00 +3°C° 0 mm 1 mps 680 mmHg 89%
    17:00 +1°C° 0 mm 1 mps 680 mmHg 90%
    18:00 0°C° 0 mm 1 mps 680 mmHg 92%
    19:00 0°C° 0.1 mm 1 mps 681 mmHg 90%
    20:00 0°C° 0.1 mm 1 mps 681 mmHg 89%
    21:00 -2°C° 0.1 mm 2 mps 681 mmHg 88%
    22:00 -2°C° 0 mm 2 mps 681 mmHg 88%
    23:00 -2°C° 0 mm 2 mps 681 mmHg 87%

    28 January, Saturday

    Time Temperature Precipitation Wind Pressure Humidity
    00:00 -2°C° 0 mm 2 mps 681 mmHg 86%
    01:00 -2°C° 0 mm 3 mps 681 mmHg 86%
    02:00 -2°C° 0 mm 3 mps 681 mmHg 86%
    03:00 -2°C° 0 mm 3 mps 680 mmHg 86%
    04:00 -2°C° 0.1 mm 3 mps 680 mmHg 86%
    05:00 -2°C° 0.1 mm 3 mps 681 mmHg 85%
    06:00 -2°C° 0.1 mm 3 mps 681 mmHg 85%
    07:00 -1°C° 0.1 mm 2 mps 681 mmHg 84%
    08:00 -1°C° 0.1 mm 2 mps 681 mmHg 84%
    09:00 +1°C° 0.1 mm 2 mps 681 mmHg 83%
    10:00 +2°C° 0.2 mm 2 mps 681 mmHg 84%
    11:00 +2°C° 0.2 mm 2 mps 681 mmHg 85%
    12:00 +3°C° 0.2 mm 2 mps 681 mmHg 85%
    13:00 +3°C° 0.2 mm 2 mps 680 mmHg 86%
    14:00 +3°C° 0.2 mm 2 mps 680 mmHg 87%
    15:00 +5°C° 0.2 mm 1 mps 679 mmHg 88%
    16:00 +4°C° 0.1 mm 1 mps 679 mmHg 89%
    17:00 +3°C° 0.1 mm 1 mps 679 mmHg 89%
    18:00 +2°C° 0.1 mm 1 mps 679 mmHg 90%
    19:00 +1°C° 0.4 mm 2 mps 679 mmHg 90%
    20:00 +1°C° 0.4 mm 2 mps 679 mmHg 90%
    21:00 +1°C° 0.4 mm 2 mps 679 mmHg 90%
    22:00 -1°C° 0.9 mm 2 mps 679 mmHg 91%
    23:00 -1°C° 0.9 mm 2 mps 679 mmHg 92%
    Show more